Location: Unspecified
(51.0950°N, 12.9690°E)
Time: 06:58:24
(UTC+00:00)

PCSat - Pass Details

Date: 18 April 2024
Orbit: 783 x 792 km, 67.1° (Epoch: 27 May)

Event Time Altitude Azimuth Distance (km) Brightness Sun altitude
Rises 21:16:03 0° 257° (WSW) 3,279 13.0 -23.2°
Reaches altitude 10° 21:18:48 10° 269° (W) 2,354 12.4 -23.4°
Maximum altitude 21:23:24 28° 328° (NNW) 1,469 11.6 -23.7°
Drops below altitude 10° 21:28:01 10° 26° (NNE) 2,367 12.5 -24.0°
Sets 21:30:48 0° 38° (NE) 3,301 13.1 -24.2°
